#timestamp,LO_Frequency,Hit,StdDev 
1506355215.7,286046995.8,N
1506355235.5,286046993.4,N
1506355255.3,286046997.6,N
1506355275.2,286046994.1,N
1506355295.9,286046992.5,N
1506355315.7,286046991.7,N
1506355335.5,286046993.6,N
1506355355.4,286046994.7,N
1506355375.2,286046992.1,N
1506355395.0,286046994.2,N
1506355395.9,286046994.2,N
1506355415.8,286046993.9,N
1506355435.6,286046994.5,N
1506355455.4,286046995.3,N
1506355475.3,286046994.3,N
1506355495.1,286046992.5,N
1506355496.0,286046992.5,N
1506355515.8,286046992.9,N
1506355535.7,286046995.6,N
1506355555.5,286046994.4,N
1506355575.3,286046994.8,N
1506355595.2,286046993.1,N
1506355615.9,286046994.5,N
1506355635.7,286046994.7,N
1506355655.6,286046992.7,Y
1506355675.4,286046995.4,P
1506355695.2,286046997.7,P
1506355715.1,286046999.6,N
1506355716.0,286046999.6,N
1506355735.8,286046996.0,N
1506355755.6,286046995.1,N
1506355775.4,286047000.3,N
1506355795.3,286047000.8,N
1506355815.1,286046997.0,N
1506355835.8,286046994.9,N
1506355855.7,286046995.0,N
1506355875.5,286046993.7,N
1506355895.3,286046990.2,Y
1506355915.2,286046999.0,P
1506355935.0,286046999.4,N
1506355935.9,286046999.4,N
1506355955.8,286046996.2,Y
1506355975.6,286046998.5,P
1506355995.4,286046996.6,P
1506356015.2,286046998.0,N
1506356035.1,286046995.9,Y
1506356036.0,286046995.9,P
1506356055.8,286046999.8,N
1506356075.7,286047000.9,N
1506356095.5,286047002.6,N
1506356115.3,286047000.5,N
1506356135.1,286047000.5,N
1506356155.9,286046998.2,N
1506356175.7,286046999.5,N
1506356195.5,286046997.8,N
1506356215.4,286046995.1,N
1506356235.2,286046995.4,N
1506356255.0,286046995.2,N
1506356255.9,286046995.2,N
1506356275.8,286046995.2,N
1506356295.6,286046996.6,N
1506356315.4,286046993.4,N
1506356335.3,286046994.0,N
1506356355.1,286046997.9,N
1506356356.0,286046997.9,N
1506356375.8,286046995.2,N
1506356395.7,286046992.4,Y
1506356415.5,286046993.8,P
1506356435.3,286046993.5,P
1506356455.2,286046995.3,N
1506356475.9,286046996.7,N
1506356495.7,286046997.8,N
1506356515.6,286046993.6,Y
1506356535.4,286046996.3,P
1506356555.2,286046995.9,P
1506356575.0,286046996.0,P
1506356576.0,286046996.0,Y
1506356595.8,286047000.2,P
1506356615.6,286047002.2,N
1506356635.5,286047003.9,N
1506356655.3,286047003.0,N
1506356675.1,286047000.4,N
1506356695.8,286046998.5,N
1506356715.7,286047002.5,N
1506356735.5,286047002.7,N
1506356755.3,286047002.5,N
1506356775.2,286046998.5,N
1506356795.9,286046998.6,N
1506356815.7,286046998.3,N
1506356835.6,286046996.7,N
1506356855.4,286046999.5,N
1506356875.2,286046998.8,N
1506356895.1,286046999.3,N
1506356896.0,286046999.3,N
1506356915.8,286046998.6,N
1506356935.6,286046996.5,N
1506356955.5,286046999.4,N
1506356975.3,286046997.1,N
1506356995.1,286046996.5,N
1506357015.8,286047000.3,N
1506357035.7,286047000.6,N
1506357055.5,286046998.3,N
1506357075.3,286046999.6,N
1506357095.2,286046997.5,N
1506357115.9,286046997.1,N
1506357135.7,286046996.1,N
1506357155.6,286046995.3,N
1506357175.4,286046998.5,N
1506357195.2,286046998.3,N
1506357215.1,286046997.9,N
1506357216.0,286046997.9,N
1506357235.8,286046996.6,N
1506357255.6,286046995.7,N
1506357275.5,286046993.5,Y
1506357295.3,286046993.6,P
1506357315.1,286046991.7,P
1506357335.9,286046992.0,N
1506357355.7,286046989.8,Y
1506357375.5,286046992.9,P
1506357395.4,286046991.7,P
1506357415.2,286046990.6,P
1506357435.0,286046988.8,Y
1506357435.9,286046988.8,P
1506357455.8,286046995.4,N
1506357475.6,286046996.8,N
1506357495.4,286046997.9,N
1506357515.3,286046996.0,N
1506357535.1,286046992.5,N
1506357536.0,286046992.5,N
1506357555.8,286046991.6,N
1506357575.7,286046990.4,Y
1506357595.5,286046997.8,P
1506357615.3,286046995.3,N
1506357635.2,286046995.6,N
1506357655.9,286046995.2,Y
1506357675.7,286046998.6,P
1506357695.6,286046996.9,N
1506357715.4,286046995.4,P
1506357735.2,286046995.7,Y
1506357755.1,286046998.6,P
1506357756.0,286046998.6,N
1506357775.8,286047001.1,N
1506357795.6,286046998.3,N
1506357815.5,286047000.8,N
1506357835.3,286047002.3,N
1506357855.1,286047001.7,N
1506357875.8,286047002.3,N
1506357895.7,286047002.0,N
1506357915.5,286046999.7,N
1506357935.3,286046999.3,N
1506357955.2,286046998.2,N
1506357975.9,286046999.0,N
1506357995.7,286046998.5,N
1506358015.6,286047000.0,N
1506358035.4,286047000.3,N
1506358055.2,286046997.2,N
1506358075.1,286046999.6,N
1506358076.0,286046999.6,N
1506358095.8,286046997.5,N
1506358115.6,286046995.4,N
1506358135.5,286046995.7,N
1506358155.3,286046997.7,N
1506358175.1,286046995.7,N
1506358195.8,286046995.5,N
1506358215.7,286046994.4,N
1506358235.5,286046993.8,N
1506358255.3,286046995.9,N
1506358275.2,286046993.9,N
1506358295.9,286046995.0,N
1506358315.7,286046994.1,N
1506358335.6,286046994.3,N
1506358355.4,286046996.2,N
1506358375.2,286046997.5,N
1506358395.1,286046997.9,N
1506358396.0,286046997.9,N
1506358415.8,286046997.8,N
1506358435.6,286046997.9,N
1506358455.5,286046996.0,N
1506358475.3,286046995.9,N
1506358495.1,286046995.7,N
1506358515.9,286046993.3,Y
1506358535.7,286046996.5,P
1506358555.5,286046998.8,P
1506358575.4,286046996.9,P
1506358595.2,286046997.2,Y
1506358615.0,286046998.7,P
1506358615.9,286046998.7,N
1506358635.8,286047001.1,N
1506358655.6,286046999.8,N
1506358675.4,286047000.9,N
1506358695.3,286046998.1,N
1506358715.1,286046990.3,Y
1506358716.0,286046990.3,P
1506358735.8,286046998.5,N
1506358755.7,286047002.0,N
1506358775.5,286047006.3,N
1506358795.3,286047010.7,N
